SCP
0 0 0 0 0 0 0 0 0 0 -0 -0 0 0 0 0 0 0 -0 -0 0 0 -0 -0 -0 -0 -0 0 0 0 1 0 0 0 0 0 -0 -0 -0 -0 -0 0 0 0
0 0 0 0 0 0 0 0 0 0 0 0 0 0 0 0 0 0 0 -0 0 0 -0 -0 -0 -0 0 0 0 1 1 1 1 1 1 0 0 0 0 -0 -0 -0 0 0
0 0 0 0 0 0 0 0 0 0 0 1 0 0 0 0 0 0 0 -0 0 0 0 -0 0 0 0 0 0 1 1 1 2 2 1 1 1 0 -0 -0 -0 -0 -0 0
0 0 0 0 0 0 0 1 0 1 1 1 1 0 0 -0 0 1 0 0 0 0 -0 0 0 0 0 0 1 1 1 2 2 2 1 2 1 1 0 0 -0 -0 -0 -0
0 0 0 0 0 0 1 0 0 0 0 0 0 1 0 1 0 0 0 1 0 0 0 -0 0 0 1 0 0 0 1 1 2 2 2 2 1 1 1 0 -0 -0 -0 -0
0 0 0 0 0 0 0 0 0 0 0 0 0 1 1 0 0 0 0 1 1 1 0 0 0 1 1 1 1 -0 0 1 2 3 3 3 2 2 2 1 1 0 0 -0
0 0 0 0 0 0 0 0 0 0 0 0 0 0 0 0 0 0 0 0 1 1 1 0 0 1 1 1 1 1 0 1 2 2 3 4 4 3 3 2 1 1 1 1
0 0 0 0 0 0 0 0 0 0 0 0 0 0 0 0 0 0 0 0 1 2 1 1 1 1 2 2 2 1 1 1 1 2 2 2 3 3 2 2 2 1 1 0
0 0 0 0 0 0 0 0 0 0 0 0 0 0 0 0 0 0 0 0 0 2 2 2 2 1 1 1 1 2 2 2 2 2 2 3 4 3 2 2 2 1 1 0
0 0 0 0 0 0 0 0 0 0 0 0 0 0 0 0 0 0 0 0 0 0 4 6 4 2 2 1 1 1 1 1 2 2 2 2 2 2 2 2 1 1 1 1
0 0 0 0 0 0 0 0 0 0 0 0 0 0 0 0 0 0 0 0 0 0 0 0 0 2 3 3 1 1 1 2 2 2 2 2 2 2 2 2 1 1 1 1
0 0 0 0 0 0 0 0 0 0 0 0 0 0 0 0 0 0 0 0 0 0 0 0 0 0 0 0 3 2 2 2 2 2 2 1 1 2 1 1 1 1 1 1
0 0 0 0 0 0 0 0 0 0 0 0 0 0 0 0 0 0 0 0 0 0 0 0 0 0 0 0 0 3 2 2 2 1 2 1 1 1 1 1 1 0 0 0
0 0 0 0 0 0 0 0 0 0 0 0 0 0 0 0 0 0 0 0 0 0 0 0 0 0 0 0 0 1 3 2 2 1 1 1 1 1 1 1 1 0 0 0
0 0 0 0 0 0 0 0 0 0 0 0 -0 0 0 0 0 0 0 0 0 0 0 0 0 0 0 0 0 0 0 0 3 1 1 1 1 1 1 0 0 0 1 0
0 0 0 0 0 0 0 0 0 0 0 0 -0 0 0 0 0 0 0 0 0 0 0 0 0 0 0 0 0 0 0 0 0 1 3 3 1 1 1 1 1 1 1 1
0 -0 -0 0 0 0 0 0 0 0 0 0 0 0 0 0 0 0 0 0 0 0 0 0 0 0 0 0 0 0 0 0 0 0 0 0 1 2 2 2 2 1 1 2
0 0 -0 0 0 0 0 0 0 0 0 0 0 0 0 0 0 0 0 0 0 0 0 0 0 0 0 0 0 0 0 0 0 0 0 0 0 0 1 0 1 3 2 1
-0 -0 0 0 0 0 0 0 0 0 0 0 0 0 0 0 0 0 0 0 0 0 0 0 0 0 0 0 -0 0 0 0 0 0 0 0 0 0 0 0 0 0 1 2
-0 -0 -0 -0 -0 0 0 0 0 0 0 0 0 0 0 0 0 0 0 0 0 0 0 0 0 0 0 0 0 -0 0 0 -0 -0 0 0 0 0 0 0 0 0 0 0
0 -0 0 -0 -0 -0 0 0 0 0 0 0 0 0 0 0 0 0 0 0 0 0 0 0 0 0 0 0 0 0 0 0 0 0 0 0 0 0 0 0 0 0 0 0
-0 -0 -0 -0 0 0 0 0 0 0 0 0 0 0 0 0 0 0 0 0 0 0 0 0 0 0 0 0 0 0 0 0 0 0 0 0 0 0 0 0 0 0 0 0
-0 -0 -0 -0 -0 -0 -0 -0 -0 -0 0 0 0 0 0 0 0 0 0 0 0 0 0 0 0 0 0 0 0 0 0 0 0 0 0 0 0 0 0 0 0 0 0 0
-0 -0 -0 -0 -0 -0 -0 -0 -0 -0 -0 0 0 0 0 0 0 0 0 0 0 0 0 0 0 0 0 0 0 0 0 0 0 0 0 0 0 0 0 0 0 0 0 0
-0 -0 -0 -0 -0 -0 -0 -0 -0 -0 -0 -0 -0 -0 0 0 0 0 0 0 0 0 0 0 0 0 0 0 0 0 0 0 0 0 0 0 0 0 0 0 0 0 0 0
0 0 -0 -0 -0 0 -0 -0 0 0 0 0 0 0 0 0 0 0 0 0 0 0 0 0 0 0 0 0 0 0 0 0 0 0 0 0 0 0 0 0 0 0 0 0
0 0 0 0 0 0 -0 0 -0 0 0 0 0 0 0 0 0 0 0 0 0 0 0 0 0 0 0 0 0 0 0 0 0 0 0 0 0 0 0 0 0 0 0 0
Wind_Speed_500mb
2 4 5 18 32 39 37 40 38 31 40 40 41 27 30 32 26 28 27 18 28 43 53 61 70 81 87 84 79 80 86 79 83 85 73 68 64 67 67 66 66 64 61 59
11 4 7 14 27 26 29 31 32 36 32 28 16 27 27 29 32 33 31 24 23 37 49 60 67 73 78 89 95 88 90 97 93 91 90 89 83 78 74 72 69 68 68 66
18 11 12 22 28 26 30 30 30 33 24 16 14 21 26 32 30 32 33 30 28 31 47 56 64 68 76 75 75 88 100 97 96 96 94 94 92 87 85 82 76 74 72 70
12 10 24 22 10 7 13 31 27 23 23 24 30 39 40 11 31 38 41 38 34 32 36 50 56 66 69 68 81 86 95 104 101 100 99 97 94 94 91 87 84 80 78 75
16 23 11 18 16 14 2 16 19 16 20 30 42 44 16 29 43 46 46 46 41 39 39 43 56 64 73 71 75 84 100 104 106 103 103 101 99 98 94 90 90 86 82 80
15 23 30 24 14 14 2 16 29 27 27 35 41 15 20 63 57 50 49 46 44 39 36 41 49 64 75 81 86 92 94 96 99 100 100 100 101 99 95 92 91 83 81 82
16 17 11 14 17 15 20 8 33 30 28 34 18 30 45 47 51 49 48 48 45 39 38 35 37 51 77 81 87 86 72 75 80 86 93 90 91 93 94 91 79 81 86 88
20 18 19 29 9 7 10 18 30 31 28 33 36 40 40 41 47 52 50 49 43 36 34 26 32 43 66 76 65 59 61 65 72 77 73 65 80 81 82 84 85 85 84 86
9 9 10 17 20 7 11 17 25 34 34 37 39 38 38 39 43 53 52 44 36 30 23 16 23 30 39 43 44 49 52 59 61 61 62 63 67 68 62 71 67 62 62 64
9 14 6 5 6 12 19 21 26 29 40 38 37 37 34 33 37 48 49 42 32 13 19 5 9 17 23 25 35 38 46 55 53 53 52 54 53 55 57 58 58 60 62 61
19 19 16 8 5 21 23 21 29 29 32 38 38 35 30 29 30 34 45 45 33 24 12 8 11 20 22 24 27 33 36 39 42 41 47 47 55 52 55 62 64 62 61 61
15 13 12 19 20 31 31 27 30 34 31 38 39 35 28 24 22 22 27 41 48 40 28 24 1 14 26 32 27 28 31 34 33 32 35 40 42 45 61 60 58 69 68 62
30 28 28 36 37 34 24 31 30 31 25 27 37 34 25 21 19 15 18 28 41 47 48 42 29 7 8 22 29 20 30 27 26 31 32 35 39 44 45 47 62 74 70 70
37 36 41 34 31 19 28 29 28 26 17 18 29 22 22 22 25 28 28 27 30 33 43 48 47 45 31 13 12 23 15 29 25 26 27 33 38 39 41 42 44 43 59 68
52 48 51 44 41 40 31 27 26 24 13 12 18 12 21 19 21 25 27 28 32 36 37 41 45 46 42 36 29 22 24 28 20 23 24 26 31 33 36 37 40 38 35 40
41 41 39 43 42 37 32 27 24 22 18 9 12 10 9 16 18 20 23 30 39 42 44 45 48 46 40 38 35 32 27 22 23 23 22 17 23 26 28 31 33 31 30 27
55 53 54 53 45 40 34 26 23 17 9 13 5 5 5 12 19 21 26 30 35 40 45 44 45 47 43 42 49 39 33 28 23 22 25 19 20 20 23 25 25 25 23 22
41 46 38 38 34 34 32 21 19 13 18 23 31 8 8 17 21 25 27 27 28 34 38 42 40 41 45 39 39 44 45 41 32 31 23 16 4 10 12 22 21 11 14 21
61 35 17 10 19 25 23 18 21 21 27 22 20 10 15 19 20 23 28 32 38 40 45 39 34 33 33 41 37 34 41 36 34 37 28 20 23 19 15 18 11 18 21 18
54 59 58 55 42 40 36 24 30 29 28 24 28 21 23 25 22 22 27 37 38 35 37 41 38 36 35 32 31 34 30 24 32 29 29 29 27 28 25 16 12 15 16 19
41 46 43 48 61 57 48 45 50 50 40 34 32 28 24 29 32 27 24 29 36 35 38 42 43 43 42 36 37 26 20 29 18 20 30 28 24 22 27 23 16 11 10 13
21 28 36 29 43 40 40 28 45 47 40 31 30 32 30 24 22 27 32 29 29 33 34 38 43 40 38 38 32 30 28 22 18 21 21 29 27 20 17 22 25 26 22 19
25 21 15 24 25 23 33 39 25 32 27 31 26 22 19 24 26 25 24 28 29 32 27 33 35 30 35 31 31 33 32 28 24 20 17 14 17 21 21 27 29 26 26 28
26 19 18 10 15 19 25 17 17 22 18 17 22 19 20 20 20 22 22 27 32 30 26 35 34 36 34 25 24 23 21 21 21 21 17 20 19 23 28 26 27 27 29 30
20 18 15 10 8 11 12 10 11 10 8 11 13 14 18 19 21 22 23 23 30 25 20 30 37 32 24 25 24 24 23 23 24 20 21 23 25 24 26 27 27 28 27 27
17 16 12 7 5 4 5 4 4 6 8 6 9 14 17 19 23 23 20 22 19 23 22 22 25 29 26 26 24 24 22 22 23 23 23 22 21 20 22 24 24 24 24 25
15 17 8 5 6 3 3 6 8 7 6 9 10 14 19 23 24 19 18 18 21 22 23 24 24 27 25 25 24 25 25 25 27 28 24 25 25 25 26 27 27 26 24 26
Wind_Direction_500mb
68 67 234 263 212 217 229 238 242 242 240 243 259 284 315 304 306 313 319 289 237 220 213 212 209 208 208 209 208 208 215 214 218 224 221 221 223 227 231 234 237 240 244 247
212 194 219 230 219 238 245 240 246 252 259 286 306 301 299 311 318 318 318 322 271 234 222 216 215 215 213 212 213 209 214 221 222 226 229 230 230 232 235 236 238 241 244 247
218 178 226 235 222 224 230 232 245 243 254 15 306 315 317 313 323 322 323 314 292 258 233 226 220 214 214 216 215 217 219 224 225 226 228 231 234 234 236 238 239 242 245 247
251 193 224 92 51 49 257 54 20 347 3 350 330 313 305 357 353 337 327 319 304 275 247 233 228 222 218 213 215 216 221 225 227 228 229 230 233 236 237 239 242 243 246 248
236 223 167 149 46 21 316 106 56 6 343 346 332 308 243 12 347 335 322 314 303 294 256 244 230 225 221 216 217 221 223 224 226 227 230 231 232 235 237 239 242 244 246 247
190 249 225 73 14 342 270 188 23 3 348 350 342 349 331 337 337 332 325 319 307 297 269 254 238 226 221 223 219 223 224 225 225 226 228 230 234 236 237 240 243 244 246 250
216 236 126 14 340 312 222 42 342 341 343 343 340 315 312 323 332 332 329 322 312 303 281 263 239 220 219 222 225 226 221 220 223 225 228 232 235 238 240 240 238 245 245 250
240 235 228 6 57 344 7 337 331 333 334 335 327 325 326 329 341 340 341 334 323 314 291 265 235 219 221 222 227 222 218 218 221 223 223 223 231 234 238 241 242 245 246 251
328 56 55 74 92 52 2 342 334 331 334 338 329 331 332 336 349 352 352 344 338 335 308 255 235 220 221 226 219 214 215 220 217 218 222 218 228 230 229 235 233 238 238 243
324 129 44 334 102 31 0 345 341 343 340 344 333 332 336 343 349 0 2 -0 1 351 45 15 260 228 224 221 216 215 216 217 216 216 218 223 222 226 225 226 230 233 235 240
271 275 311 232 38 347 345 340 342 346 352 349 343 343 342 342 352 8 5 23 24 39 53 81 134 172 188 210 216 211 212 213 213 215 222 221 226 221 226 230 228 233 238 241
276 41 326 306 317 322 322 330 332 332 350 352 349 349 348 336 339 1 16 22 42 49 56 54 201 207 198 195 183 210 211 211 209 211 224 228 225 232 226 223 235 234 232 234
283 291 285 283 292 299 296 318 323 329 340 348 340 344 350 1 9 11 27 40 33 46 50 54 63 66 257 239 220 207 213 212 213 214 217 223 230 229 238 249 245 241 243 239
274 277 275 272 270 270 291 303 315 314 333 356 335 336 346 16 16 26 33 41 46 46 47 47 46 51 63 101 206 210 211 207 206 216 226 223 231 236 237 238 243 257 249 247
268 263 263 267 267 269 277 289 302 302 338 322 324 342 359 0 20 22 32 38 53 55 51 48 47 44 41 56 79 128 170 172 177 224 220 229 230 237 239 239 241 242 238 254
268 264 262 254 255 253 264 268 278 291 315 269 293 305 334 9 24 24 31 35 41 48 53 47 44 41 42 45 49 59 84 116 175 166 184 216 236 234 241 242 242 241 240 238
253 250 247 250 245 245 251 249 263 281 275 152 226 271 328 28 29 28 30 39 37 40 41 44 43 34 33 50 47 41 48 54 59 80 126 169 194 213 231 241 242 236 235 233
247 234 238 236 236 240 239 247 258 232 171 187 210 289 62 51 38 29 30 35 36 40 40 37 31 42 34 36 59 47 38 41 38 35 39 34 51 186 209 219 228 246 260 254
51 65 91 194 236 226 240 236 180 172 168 172 157 172 102 90 59 39 38 37 35 31 30 28 31 25 42 38 26 49 46 36 39 37 25 15 21 10 334 305 235 233 237 241
43 50 51 71 91 99 83 81 139 122 124 132 111 88 81 76 76 51 40 43 40 33 27 29 30 25 24 36 40 34 26 31 26 29 19 14 12 14 4 347 337 266 258 255
54 53 53 55 65 69 73 73 77 89 90 90 91 77 70 66 57 61 49 38 31 31 24 25 29 29 23 29 27 32 22 21 31 345 358 8 359 352 5 359 5 12 349 314
57 69 72 68 64 71 72 69 69 70 78 74 69 61 66 55 51 48 44 40 21 42 22 18 23 23 29 30 31 33 41 38 19 24 5 2 358 357 349 350 12 22 11 358
24 31 96 85 78 77 67 81 80 74 69 57 56 47 44 44 43 35 22 17 22 30 19 14 18 24 38 19 23 21 26 31 19 31 12 356 334 339 354 356 2 5 3 4
22 25 28 92 98 92 98 102 83 82 72 53 47 42 42 36 24 20 12 352 360 26 6 7 27 44 37 18 17 18 12 11 16 7 356 352 352 0 345 356 353 0 354 351
15 19 28 42 72 101 104 112 108 75 67 68 50 30 27 21 15 2 357 357 349 11 12 2 13 27 17 17 13 10 8 356 356 359 340 345 0 352 345 350 344 353 356 348
14 12 4 21 39 80 77 50 360 15 348 4 5 5 3 359 347 358 352 354 2 10 359 356 351 355 354 352 354 345 344 340 341 342 350 340 337 338 334 338 335 346 345 339
355 7 38 63 40 8 304 341 342 353 352 353 349 346 346 345 344 355 355 348 347 346 340 337 338 332 336 337 337 331 326 324 321 322 331 326 329 330 331 330 332 332 333 331
Wind_Speed_850mb
2 4 5 18 32 39 37 40 38 31 40 40 41 27 30 32 26 28 27 18 28 43 53 61 70 81 87 84 79 80 86 79 83 85 73 68 64 67 67 66 66 64 61 59
11 4 7 14 27 26 29 31 32 36 32 28 16 27 27 29 32 33 31 24 23 37 49 60 67 73 78 89 95 88 90 97 93 91 90 89 83 78 74 72 69 68 68 66
18 11 12 22 28 26 30 30 30 33 24 16 14 21 26 32 30 32 33 30 28 31 47 56 64 68 76 75 75 88 100 97 96 96 94 94 92 87 85 82 76 74 72 70
12 10 24 22 10 7 13 31 27 23 23 24 30 39 40 11 31 38 41 38 34 32 36 50 56 66 69 68 81 86 95 104 101 100 99 97 94 94 91 87 84 80 78 75
16 23 11 18 16 14 2 16 19 16 20 30 42 44 16 29 43 46 46 46 41 39 39 43 56 64 73 71 75 84 100 104 106 103 103 101 99 98 94 90 90 86 82 80
15 23 30 24 14 14 2 16 29 27 27 35 41 15 20 63 57 50 49 46 44 39 36 41 49 64 75 81 86 92 94 96 99 100 100 100 101 99 95 92 91 83 81 82
16 17 11 14 17 15 20 8 33 30 28 34 18 30 45 47 51 49 48 48 45 39 38 35 37 51 77 81 87 86 72 75 80 86 93 90 91 93 94 91 79 81 86 88
20 18 19 29 9 7 10 18 30 31 28 33 36 40 40 41 47 52 50 49 43 36 34 26 32 43 66 76 65 59 61 65 72 77 73 65 80 81 82 84 85 85 84 86
9 9 10 17 20 7 11 17 25 34 34 37 39 38 38 39 43 53 52 44 36 30 23 16 23 30 39 43 44 49 52 59 61 61 62 63 67 68 62 71 67 62 62 64
9 14 6 5 6 12 19 21 26 29 40 38 37 37 34 33 37 48 49 42 32 13 19 5 9 17 23 25 35 38 46 55 53 53 52 54 53 55 57 58 58 60 62 61
19 19 16 8 5 21 23 21 29 29 32 38 38 35 30 29 30 34 45 45 33 24 12 8 11 20 22 24 27 33 36 39 42 41 47 47 55 52 55 62 64 62 61 61
15 13 12 19 20 31 31 27 30 34 31 38 39 35 28 24 22 22 27 41 48 40 28 24 1 14 26 32 27 28 31 34 33 32 35 40 42 45 61 60 58 69 68 62
30 28 28 36 37 34 24 31 30 31 25 27 37 34 25 21 19 15 18 28 41 47 48 42 29 7 8 22 29 20 30 27 26 31 32 35 39 44 45 47 62 74 70 70
37 36 41 34 31 19 28 29 28 26 17 18 29 22 22 22 25 28 28 27 30 33 43 48 47 45 31 13 12 23 15 29 25 26 27 33 38 39 41 42 44 43 59 68
52 48 51 44 41 40 31 27 26 24 13 12 18 12 21 19 21 25 27 28 32 36 37 41 45 46 42 36 29 22 24 28 20 23 24 26 31 33 36 37 40 38 35 40
41 41 39 43 42 37 32 27 24 22 18 9 12 10 9 16 18 20 23 30 39 42 44 45 48 46 40 38 35 32 27 22 23 23 22 17 23 26 28 31 33 31 30 27
55 53 54 53 45 40 34 26 23 17 9 13 5 5 5 12 19 21 26 30 35 40 45 44 45 47 43 42 49 39 33 28 23 22 25 19 20 20 23 25 25 25 23 22
41 46 38 38 34 34 32 21 19 13 18 23 31 8 8 17 21 25 27 27 28 34 38 42 40 41 45 39 39 44 45 41 32 31 23 16 4 10 12 22 21 11 14 21
61 35 17 10 19 25 23 18 21 21 27 22 20 10 15 19 20 23 28 32 38 40 45 39 34 33 33 41 37 34 41 36 34 37 28 20 23 19 15 18 11 18 21 18
54 59 58 55 42 40 36 24 30 29 28 24 28 21 23 25 22 22 27 37 38 35 37 41 38 36 35 32 31 34 30 24 32 29 29 29 27 28 25 16 12 15 16 19
41 46 43 48 61 57 48 45 50 50 40 34 32 28 24 29 32 27 24 29 36 35 38 42 43 43 42 36 37 26 20 29 18 20 30 28 24 22 27 23 16 11 10 13
21 28 36 29 43 40 40 28 45 47 40 31 30 32 30 24 22 27 32 29 29 33 34 38 43 40 38 38 32 30 28 22 18 21 21 29 27 20 17 22 25 26 22 19
25 21 15 24 25 23 33 39 25 32 27 31 26 22 19 24 26 25 24 28 29 32 27 33 35 30 35 31 31 33 32 28 24 20 17 14 17 21 21 27 29 26 26 28
26 19 18 10 15 19 25 17 17 22 18 17 22 19 20 20 20 22 22 27 32 30 26 35 34 36 34 25 24 23 21 21 21 21 17 20 19 23 28 26 27 27 29 30
20 18 15 10 8 11 12 10 11 10 8 11 13 14 18 19 21 22 23 23 30 25 20 30 37 32 24 25 24 24 23 23 24 20 21 23 25 24 26 27 27 28 27 27
17 16 12 7 5 4 5 4 4 6 8 6 9 14 17 19 23 23 20 22 19 23 22 22 25 29 26 26 24 24 22 22 23 23 23 22 21 20 22 24 24 24 24 25
15 17 8 5 6 3 3 6 8 7 6 9 10 14 19 23 24 19 18 18 21 22 23 24 24 27 25 25 24 25 25 25 27 28 24 25 25 25 26 27 27 26 24 26
Wind_Direction_850mb
68 67 234 263 212 217 229 238 242 242 240 243 259 284 315 304 306 313 319 289 237 220 213 212 209 208 208 209 208 208 215 214 218 224 221 221 223 227 231 234 237 240 244 247
212 194 219 230 219 238 245 240 246 252 259 286 306 301 299 311 318 318 318 322 271 234 222 216 215 215 213 212 213 209 214 221 222 226 229 230 230 232 235 236 238 241 244 247
218 178 226 235 222 224 230 232 245 243 254 15 306 315 317 313 323 322 323 314 292 258 233 226 220 214 214 216 215 217 219 224 225 226 228 231 234 234 236 238 239 242 245 247
251 193 224 92 51 49 257 54 20 347 3 350 330 313 305 357 353 337 327 319 304 275 247 233 228 222 218 213 215 216 221 225 227 228 229 230 233 236 237 239 242 243 246 248
236 223 167 149 46 21 316 106 56 6 343 346 332 308 243 12 347 335 322 314 303 294 256 244 230 225 221 216 217 221 223 224 226 227 230 231 232 235 237 239 242 244 246 247
190 249 225 73 14 342 270 188 23 3 348 350 342 349 331 337 337 332 325 319 307 297 269 254 238 226 221 223 219 223 224 225 225 226 228 230 234 236 237 240 243 244 246 250
216 236 126 14 340 312 222 42 342 341 343 343 340 315 312 323 332 332 329 322 312 303 281 263 239 220 219 222 225 226 221 220 223 225 228 232 235 238 240 240 238 245 245 250
240 235 228 6 57 344 7 337 331 333 334 335 327 325 326 329 341 340 341 334 323 314 291 265 235 219 221 222 227 222 218 218 221 223 223 223 231 234 238 241 242 245 246 251
328 56 55 74 92 52 2 342 334 331 334 338 329 331 332 336 349 352 352 344 338 335 308 255 235 220 221 226 219 214 215 220 217 218 222 218 228 230 229 235 233 238 238 243
324 129 44 334 102 31 0 345 341 343 340 344 333 332 336 343 349 0 2 -0 1 351 45 15 260 228 224 221 216 215 216 217 216 216 218 223 222 226 225 226 230 233 235 240
271 275 311 232 38 347 345 340 342 346 352 349 343 343 342 342 352 8 5 23 24 39 53 81 134 172 188 210 216 211 212 213 213 215 222 221 226 221 226 230 228 233 238 241
276 41 326 306 317 322 322 330 332 332 350 352 349 349 348 336 339 1 16 22 42 49 56 54 201 207 198 195 183 210 211 211 209 211 224 228 225 232 226 223 235 234 232 234
283 291 285 283 292 299 296 318 323 329 340 348 340 344 350 1 9 11 27 40 33 46 50 54 63 66 257 239 220 207 213 212 213 214 217 223 230 229 238 249 245 241 243 239
274 277 275 272 270 270 291 303 315 314 333 356 335 336 346 16 16 26 33 41 46 46 47 47 46 51 63 101 206 210 211 207 206 216 226 223 231 236 237 238 243 257 249 247
268 263 263 267 267 269 277 289 302 302 338 322 324 342 359 0 20 22 32 38 53 55 51 48 47 44 41 56 79 128 170 172 177 224 220 229 230 237 239 239 241 242 238 254
268 264 262 254 255 253 264 268 278 291 315 269 293 305 334 9 24 24 31 35 41 48 53 47 44 41 42 45 49 59 84 116 175 166 184 216 236 234 241 242 242 241 240 238
253 250 247 250 245 245 251 249 263 281 275 152 226 271 328 28 29 28 30 39 37 40 41 44 43 34 33 50 47 41 48 54 59 80 126 169 194 213 231 241 242 236 235 233
247 234 238 236 236 240 239 247 258 232 171 187 210 289 62 51 38 29 30 35 36 40 40 37 31 42 34 36 59 47 38 41 38 35 39 34 51 186 209 219 228 246 260 254
51 65 91 194 236 226 240 236 180 172 168 172 157 172 102 90 59 39 38 37 35 31 30 28 31 25 42 38 26 49 46 36 39 37 25 15 21 10 334 305 235 233 237 241
43 50 51 71 91 99 83 81 139 122 124 132 111 88 81 76 76 51 40 43 40 33 27 29 30 25 24 36 40 34 26 31 26 29 19 14 12 14 4 347 337 266 258 255
54 53 53 55 65 69 73 73 77 89 90 90 91 77 70 66 57 61 49 38 31 31 24 25 29 29 23 29 27 32 22 21 31 345 358 8 359 352 5 359 5 12 349 314
57 69 72 68 64 71 72 69 69 70 78 74 69 61 66 55 51 48 44 40 21 42 22 18 23 23 29 30 31 33 41 38 19 24 5 2 358 357 349 350 12 22 11 358
24 31 96 85 78 77 67 81 80 74 69 57 56 47 44 44 43 35 22 17 22 30 19 14 18 24 38 19 23 21 26 31 19 31 12 356 334 339 354 356 2 5 3 4
22 25 28 92 98 92 98 102 83 82 72 53 47 42 42 36 24 20 12 352 360 26 6 7 27 44 37 18 17 18 12 11 16 7 356 352 352 0 345 356 353 0 354 351
15 19 28 42 72 101 104 112 108 75 67 68 50 30 27 21 15 2 357 357 349 11 12 2 13 27 17 17 13 10 8 356 356 359 340 345 0 352 345 350 344 353 356 348
14 12 4 21 39 80 77 50 360 15 348 4 5 5 3 359 347 358 352 354 2 10 359 356 351 355 354 352 354 345 344 340 341 342 350 340 337 338 334 338 335 346 345 339
355 7 38 63 40 8 304 341 342 353 352 353 349 346 346 345 344 355 355 348 347 346 340 337 338 332 336 337 337 331 326 324 321 322 331 326 329 330 331 330 332 332 333 331